Flag for United Kingdom Weather past 2 weeks in Colchester, England, United Kingdom

Now
59 °F

Passing clouds.


Feels Like: 58 °F
Forecast: 52 / 69 °F
Wind: 8 mph from North

Location: Luton Airport

Current Time: Sep 1, 2014 at 10:07:31 PM

Latest Report: Sep 1, 2014 at 9:20 PM


Visibility: N/A

Pressure: 30.15 "Hg

Humidity: 94%

Dew point: 57 °F

Location of ColchesterLocation

Historic Weather in Colchester — Graph

°F

Colchester temperature yesterday

Maximum temperature yesterday: 68 °F (at 1:20 PM)
Minimum temperature yesterday: 54 °F (at 12:20 AM)
Average temperature yesterday: 60 °F

Past Weeks' High & Low Weather Summary

 TemperatureHumidityPressure
High70 °F (Aug 28, 2:20 PM)100% (Aug 25, 6:20 AM)30.15 "Hg (Aug 25, 6:20 AM)
Low43 °F (Aug 21, 5:50 AM)34% (Aug 20, 2:20 PM)29.53 "Hg (Aug 25, 10:20 PM)
Average57 °F78%29.91 "Hg
* Reported Aug 17 8:20 PM — Sep 1 8:50 PM, Colchester, Weather by CustomWeather, © 2014

Note: Actual official high and low records may vary slightly from our data, if they occured in-between our weather recording intervals... More about our weather records

Advertising

Colchester weather history for previous 24 hours

 ConditionsComfort  
Time TempWeatherWind HumidityBarometerVisibility
8:50 PM
Sep 1
59 °FPassing clouds.7 mph94%30.15 "HgN/A
8:20 PM59 °FScattered clouds.5 mph94%30.15 "HgN/A
7:50 PM61 °FPassing clouds.6 mph94%30.12 "HgN/A
7:20 PM61 °FPassing clouds.9 mph94%30.12 "HgN/A
6:50 PM63 °FPartly sunny.12 mph88%30.12 "HgN/A
6:20 PM64 °FBroken clouds.8 mph88%30.12 "HgN/A
5:20 PM66 °FBroken clouds.10 mph83%30.09 "HgN/A
4:50 PM68 °FPartly sunny.9 mph83%30.09 "HgN/A
4:20 PM66 °FScattered clouds.9 mph88%30.09 "HgN/A
3:50 PM66 °FScattered clouds.9 mph94%30.09 "HgN/A
3:20 PM64 °FPartly sunny.8 mph94%30.09 "HgN/A
2:50 PM64 °FDrizzle. Broken clouds.10 mph94%30.09 "Hg4 mi
2:20 PM63 °FPartly sunny.7 mph94%30.12 "HgN/A
1:50 PM63 °FDrizzle. Partly sunny.7 mph94%30.12 "Hg5 mi
1:20 PM63 °FPartly sunny.9 mph100%30.12 "Hg6 mi
12:50 PM61 °FPartly sunny.8 mph100%30.12 "Hg4 mi
12:20 PM61 °FFog.7 mph100%30.12 "Hg2 mi
11:50 AM61 °FFog.7 mph94%30.12 "Hg3 mi
11:20 AM61 °FFog.7 mph94%30.12 "Hg3 mi
10:50 AM61 °FDrizzle. Low clouds.6 mph94%30.12 "Hg3 mi
10:20 AM59 °FDrizzle. Low clouds.6 mph100%30.12 "Hg3 mi
9:50 AM59 °FDrizzle. Low clouds.6 mph100%30.12 "Hg3 mi
9:20 AM57 °FFog.6 mph100%30.12 "Hg3 mi
8:50 AM57 °FPartly sunny.6 mph94%30.12 "Hg3 mi
8:20 AM57 °FCloudy.6 mph94%30.12 "Hg6 mi
7:50 AM57 °FPartly sunny.5 mph94%30.12 "Hg5 mi
7:20 AM55 °FPartly sunny.3 mph94%30.09 "HgN/A
6:50 AM55 °FMostly cloudy.3 mph94%30.09 "HgN/A
6:20 AM54 °FPartly cloudy.3 mph94%30.09 "HgN/A
5:50 AM54 °FPassing clouds.5 mph100%30.09 "HgN/A
5:20 AM54 °FPassing clouds.3 mph94%30.09 "HgN/A
4:50 AM54 °FPassing clouds.3 mph94%30.09 "HgN/A
4:20 AM54 °FPassing clouds.6 mph94%30.09 "HgN/A
3:50 AM54 °FClear.6 mph94%30.09 "Hg10 mi
3:20 AM55 °FClear.6 mph94%30.09 "Hg10 mi
2:50 AM57 °FClear.9 mph88%30.09 "Hg10 mi
2:20 AM57 °FClear.9 mph88%30.09 "Hg10 mi
1:50 AM55 °FClear.9 mph94%30.09 "Hg10 mi
1:20 AM55 °FClear.8 mph94%30.09 "Hg10 mi
12:50 AM57 °FClear.9 mph88%30.09 "Hg10 mi
12:20 AM57 °FClear.10 mph88%30.12 "Hg10 mi
11:50 PM
Aug 31
57 °FClear.9 mph88%30.12 "Hg10 mi
11:20 PM55 °FClear.9 mph82%30.12 "Hg10 mi
10:20 PM54 °FClear.3 mph82%30.09 "Hg10 mi
Weather by CustomWeather, © 2014

See weather overviewHow to use our weather pages